GW2463 Weather Reports


time (UTC)temp
C
wind
direction
speed
KPH
gust
KPH
rain 1hr
cm
rain 24hr
cm
rain mn
cm
humidity
%
barometer
mb
20260506081020 16 236 0.0 0.0 0.00 0.00 0.00 64 1009.1
20260506080519 16 30 0.0 1.6 0.00 0.00 0.00 63 1009.2
20260506073049 16 250 0.0 1.6 0.00 0.00 0.00 61 1009.4
20260506072527 16 250 0.0 1.6 0.00 0.00 0.00 61 1009.4
20260506072046 16 84 0.0 3.2 0.00 0.00 0.00 61 1009.5
20260506071524 16 186 0.0 3.2 0.00 0.00 0.00 61 1009.4
20260506071023 16 300 0.0 3.2 0.00 0.00 0.00 61 1009.5
20260506070542 16 222 0.0 3.2 0.00 0.00 0.00 61 1009.5
20260506062027 16 72 0.0 1.6 0.00 0.00 0.00 60 1010.0
20260506061526 16 130 0.0 3.2 0.00 0.00 0.00 60 1010.1
20260506061044 17 68 0.0 3.2 0.00 0.00 0.00 60 1010.1
20260506060522 17 70 0.0 1.6 0.00 0.00 0.00 59 1010.1
20260506051037 17 131 0.0 1.6 0.00 0.00 0.00 56 1010.3
20260506050533 17 242 0.0 3.2 0.00 0.00 0.00 55 1010.3
20260506045022 18 33 0.0 1.6 0.00 0.00 0.00 55 1010.4
20260506044542 18 29 0.0 1.6 0.00 0.00 0.00 54 1010.4
20260506044021 18 246 0.0 1.6 0.00 0.00 0.00 54 1010.4
20260506043521 18 208 0.0 1.6 0.00 0.00 0.00 54 1010.4
20260506043021 18 240 0.0 1.6 0.00 0.00 0.00 54 1010.3
20260506042520 18 92 0.0 4.8 0.00 0.00 0.00 53 1010.4
20260506042020 18 203 0.0 4.8 0.00 0.00 0.00 53 1010.3
20260506041048 18 181 0.0 4.8 0.00 0.00 0.00 52 1010.4
20260506040526 18 225 0.0 1.6 0.00 0.00 0.00 53 1010.5
20260506040021 18 195 0.0 3.2 0.00 0.00 0.00 53 1010.5
20260506035513 18 155 0.0 3.2 0.00 0.00 0.00 52 1010.4
20260506035031 18 205 0.0 3.2 0.00 0.00 0.00 52 1010.4
20260506034525 18 96 0.0 3.2 0.00 0.00 0.00 51 1010.5
20260506034024 18 177 0.0 1.6 0.00 0.00 0.00 51 1010.4
20260506033525 18 208 0.0 0.0 0.00 0.00 0.00 51 1010.5
20260506033026 18 101 0.0 3.2 0.00 0.00 0.00 50 1010.4
20260506032526 18 187 0.0 3.2 0.00 0.00 0.00 50 1010.3
20260506032026 19 204 0.0 3.2 0.00 0.00 0.00 50 1010.4
20260506031526 19 149 0.0 3.2 0.00 0.00 0.00 49 1010.4
20260506031026 19 243 0.0 9.7 0.00 0.00 0.00 49 1010.4
20260506030545 19 245 0.0 9.7 0.00 0.00 0.00 49 1010.4
20260506030041 19 285 0.0 1.6 0.00 0.00 0.00 49 1010.4
20260506025518 19 257 0.0 4.8 0.00 0.00 0.00 49 1010.4
20260506025016 19 61 0.0 4.8 0.00 0.00 0.00 49 1010.3
20260506024515 19 238 0.0 3.2 0.00 0.00 0.00 48 1010.4
20260506024033 19 194 0.0 3.2 0.00 0.00 0.00 48 1010.4
20260506023550 20 214 0.0 4.8 0.00 0.00 0.00 48 1010.6
20260506023048 20 250 0.0 1.6 0.00 0.00 0.00 48 1010.5
20260506022528 20 243 0.0 1.6 0.00 0.00 0.00 48 1010.6
20260506022022 20 275 0.0 1.6 0.00 0.00 0.00 47 1010.6
20260506021519 20 242 0.0 4.8 0.00 0.00 0.00 47 1010.6
20260506021016 20 186 0.0 4.8 0.00 0.00 0.00 47 1010.5
20260506020513 20 170 0.0 3.2 0.00 0.00 0.00 46 1010.6
20260506020028 20 257 0.0 4.8 0.00 0.00 0.00 46 1010.5
20260506015528 20 198 1.6 4.8 0.00 0.00 0.00 46 1010.6
20260506015028 20 225 0.0 3.2 0.00 0.00 0.00 46 1010.5
20260506014529 20 234 0.0 3.2 0.00 0.00 0.00 46 1010.4
20260506014030 20 208 0.0 1.6 0.00 0.00 0.00 45 1010.4
20260506013512 20 226 0.0 1.6 0.00 0.00 0.00 46 1010.3
20260506013013 20 233 0.0 4.8 0.00 0.00 0.00 45 1010.3
20260506012513 20 212 0.0 4.8 0.00 0.00 0.00 45 1010.2
20260506012013 21 84 0.0 4.8 0.00 0.00 0.00 44 1010.2
20260506011513 21 170 0.0 3.2 0.00 0.00 0.00 43 1010.0
20260506011014 21 184 0.0 3.2 0.00 0.00 0.00 43 1010.0
20260506010514 21 239 0.0 4.8 0.00 0.00 0.00 43 1009.9
20260506010044 21 233 1.6 4.8 0.00 0.00 0.00 43 1009.8
20260506005520 21 68 0.0 11.3 0.00 0.00 0.00 43 1009.8
20260506005017 21 40 1.6 11.3 0.00 0.00 0.00 43 1009.8
20260506004516 21 214 0.0 4.8 0.00 0.00 0.00 43 1009.7
20260506004013 21 220 0.0 1.6 0.00 0.00 0.00 43 1009.8
20260506003530 21 87 0.0 1.6 0.00 0.00 0.00 43 1009.7
20260506003028 21 248 0.0 1.6 0.00 0.00 0.00 43 1009.6
20260506002528 21 215 0.0 0.0 0.00 0.00 0.00 43 1009.5
20260506002028 21 218 0.0 0.0 0.00 0.00 0.00 43 1009.5
20260506001547 21 215 0.0 0.0 0.00 0.00 0.00 43 1009.5
20260506001024 21 214 0.0 0.0 0.00 0.00 0.00 44 1009.4
20260506000523 21 256 0.0 0.0 0.00 0.00 0.00 43 1009.4
20260506000020 21 281 0.0 0.0 0.00 0.00 0.00 43 1009.4
20260505235540 21 194 0.0 0.0 0.00 0.00 0.00 43 1009.5
20260505235018 21 83 0.0 0.0 0.00 0.00 0.00 42 1009.4
20260505234519 21 270 0.0 0.0 0.00 0.00 0.00 42 1009.4
20260505234038 21 215 0.0 0.0 0.00 0.00 0.00 42 1009.4
20260505233516 21 214 0.0 0.0 0.00 0.00 0.00 41 1009.5
20260505233015 21 236 0.0 0.0 0.00 0.00 0.00 41 1009.4
20260505232513 22 217 0.0 0.0 0.00 0.00 0.00 41 1009.4
20260505232032 22 129 0.0 0.0 0.00 0.00 0.00 41 1009.4
20260505231551 22 253 0.0 3.2 0.00 0.00 0.00 40 1009.4
20260505231029 22 262 0.0 3.2 0.00 0.00 0.00 40 1009.3
20260505230548 22 197 1.6 4.8 0.00 0.00 0.00 40 1009.4
20260505230020 22 207 1.6 4.8 0.00 0.00 0.00 40 1009.3
20260505225518 22 231 0.0 11.3 0.00 0.00 0.00 39 1009.2
20260505225036 22 212 0.0 11.3 0.00 0.00 0.00 39 1009.1
20260505224514 22 238 0.0 6.4 0.00 0.00 0.00 39 1009.0
20260505224031 22 221 1.6 8.0 0.00 0.00 0.00 40 1009.1
20260505223528 22 221 1.6 8.0 0.00 0.00 0.00 39 1009.0
20260505223025 22 221 0.0 6.4 0.00 0.00 0.00 39 1009.1
20260505222523 22 269 0.0 4.8 0.00 0.00 0.00 40 1009.0
20260505222041 22 229 0.0 4.8 0.00 0.00 0.00 40 1008.9
20260505221517 22 263 1.6 6.4 0.00 0.00 0.00 39 1009.0
20260505221035 22 238 1.6 6.4 0.00 0.00 0.00 39 1009.0
20260505220531 22 203 1.6 6.4 0.00 0.00 0.00 39 1009.0
20260505220026 22 176 0.0 8.0 0.00 0.00 0.00 39 1009.0
20260505215526 23 264 1.6 9.7 0.00 0.00 0.00 39 1008.9
20260505215025 23 243 0.0 9.7 0.00 0.00 0.00 38 1008.8
20260505214525 23 267 0.0 6.4 0.00 0.00 0.00 38 1008.8
20260505214024 23 266 1.6 9.7 0.00 0.00 0.00 37 1008.7
20260505213522 23 278 3.2 9.7 0.00 0.00 0.00 35 1008.7
20260505213021 23 248 1.6 11.3 0.00 0.00 0.00 34 1008.7
20260505212518 23 277 1.6 14.5 0.00 0.00 0.00 33 1008.6
20260505212015 23 208 6.4 14.5 0.00 0.00 0.00 33 1008.6
20260505211527 23 55 4.8 11.3 0.00 0.00 0.00 32 1008.5
20260505211023 23 246 3.2 9.7 0.00 0.00 0.00 33 1008.4
20260505210540 23 207 0.0 9.7 0.00 0.00 0.00 33 1008.4
20260505210013 23 212 1.6 8.0 0.00 0.00 0.00 33 1008.4
20260505205530 23 192 1.6 11.3 0.00 0.00 0.00 32 1008.3
20260505205027 23 345 1.6 11.3 0.00 0.00 0.00 32 1008.3
20260505204524 23 82 1.6 8.0 0.00 0.00 0.00 31 1008.4
20260505204021 24 290 0.0 8.0 0.00 0.00 0.00 31 1008.3
20260505203519 24 219 1.6 12.9 0.00 0.00 0.00 32 1008.3
20260505203018 25 284 0.0 12.9 0.00 0.00 0.00 31 1008.3
20260505202516 25 51 1.6 12.9 0.00 0.00 0.00 30 1008.4
20260505202015 25 219 3.2 8.0 0.00 0.00 0.00 31 1008.3
20260505201533 25 219 3.2 9.7 0.00 0.00 0.00 31 1008.3
20260505201029 25 288 3.2 9.7 0.00 0.00 0.00 31 1008.2
20260505200529 25 236 1.6 8.0 0.00 0.00 0.00 32 1008.2
20260505200023 25 81 1.6 12.9 0.00 0.00 0.00 32 1008.0
20260505195521 25 253 4.8 12.9 0.00 0.00 0.00 31 1008.3
20260505195040 25 314 6.4 12.9 0.00 0.00 0.00 31 1008.3
20260505194539 25 259 3.2 14.5 0.00 0.00 0.00 31 1008.3
20260505194016 25 269 4.8 14.5 0.00 0.00 0.00 31 1008.5
20260505193515 25 267 3.2 8.0 0.00 0.00 0.00 32 1008.3
20260505193014 24 229 1.6 8.0 0.00 0.00 0.00 32 1008.6
20260505192513 24 214 4.8 17.7 0.00 0.00 0.00 32 1008.8
20260505192031 24 239 6.4 17.7 0.00 0.00 0.00 32 1008.9
20260505191551 24 242 3.2 11.3 0.00 0.00 0.00 32 1008.8
20260505191027 24 197 1.6 11.3 0.00 0.00 0.00 33 1008.8
20260505190524 24 248 1.6 12.9 0.00 0.00 0.00 34 1008.8
20260505190040 24 191 4.8 12.9 0.00 0.00 0.00 33 1009.0
20260505185538 24 207 4.8 20.9 0.00 0.00 0.00 33 1009.2
20260505184518 24 240 1.6 9.7 0.00 0.00 0.00 35 1009.4
20260505184018 24 263 4.8 11.3 0.00 0.00 0.00 36 1009.4
20260505183518 23 236 3.2 11.3 0.00 0.00 0.00 36 1009.4
20260505183019 23 250 3.2 12.9 0.00 0.00 0.00 35 1009.4
20260505182540 24 215 3.2 11.3 0.00 0.00 0.00 35 1009.4
20260505182020 25 242 1.6 11.3 0.00 0.00 0.00 33 1009.4
20260505181535 25 239 1.6 12.9 0.00 0.00 0.00 32 1009.4
20260505181014 25 236 4.8 12.9 0.00 0.00 0.00 31 1009.6
20260505180515 24 308 3.2 16.1 0.00 0.00 0.00 32 1009.6
20260505180049 24 253 3.2 16.1 0.00 0.00 0.00 33 1009.6
20260505175527 24 277 6.4 16.1 0.00 0.00 0.00 33 1009.9
20260505175026 24 50 3.2 16.1 0.00 0.00 0.00 33 1009.7
20260505174525 24 113 6.4 19.3 0.00 0.00 0.00 33 1009.7
20260505174044 24 226 3.2 19.3 0.00 0.00 0.00 33 1009.6
20260505173521 24 63 3.2 17.7 0.00 0.00 0.00 35 1009.6
20260505173039 23 212 1.6 17.7 0.00 0.00 0.00 36 1009.7
20260505172537 23 266 6.4 16.1 0.00 0.00 0.00 34 1009.6
20260505172035 23 249 4.8 16.1 0.00 0.00 0.00 34 1009.7
20260505171534 23 245 6.4 16.1 0.00 0.00 0.00 34 1009.8
20260505171050 24 338 6.4 14.5 0.00 0.00 0.00 33 1009.8
20260505170526 23 234 3.2 16.1 0.00 0.00 0.00 35 1009.7
20260505170023 23 246 8.0 16.1 0.00 0.00 0.00 35 1010.0
20260505165523 23 266 3.2 16.1 0.00 0.00 0.00 37 1010.0
20260505165024 23 250 4.8 16.1 0.00 0.00 0.00 37 1010.0
20260505164544 23 219 4.8 19.3 0.00 0.00 0.00 37 1010.0
20260505164022 23 78 3.2 19.3 0.00 0.00 0.00 38 1010.2
20260505163521 23 231 6.4 14.5 0.00 0.00 0.00 38 1010.0
20260505163019 23 255 6.4 14.5 0.00 0.00 0.00 39 1010.2
20260505162517 23 193 1.6 14.5 0.00 0.00 0.00 40 1010.2
20260505162014 23 208 3.2 14.5 0.00 0.00 0.00 40 1010.4
20260505161531 23 221 1.6 11.3 0.00 0.00 0.00 41 1010.4
20260505161028 23 233 1.6 16.1 0.00 0.00 0.00 42 1010.4
20260505160525 22 249 8.0 16.1 0.00 0.00 0.00 42 1010.6
20260505153022 22 288 1.6 12.9 0.00 0.00 0.00 43 1010.8
20260505152521 22 280 3.2 12.9 0.00 0.00 0.00 43 1010.9
20260505152040 22 240 1.6 12.9 0.00 0.00 0.00 45 1010.8
20260505151538 22 233 3.2 12.9 0.00 0.00 0.00 45 1010.8
20260505151016 22 266 4.8 12.9 0.00 0.00 0.00 44 1010.9
20260505150514 22 219 0.0 6.4 0.00 0.00 0.00 46 1010.9
20260505140522 20 259 1.6 6.4 0.00 0.00 0.00 47 1011.2
20260505125026 18 174 1.6 8.0 0.00 0.00 0.00 56 1011.3
20260505124523 17 287 3.2 6.4 0.00 0.00 0.00 56 1011.2
20260505124021 17 252 0.0 4.8 0.00 0.00 0.00 57 1011.0
20260505123519 17 240 0.0 6.4 0.00 0.00 0.00 56 1011.0
20260505123018 17 269 1.6 6.4 0.00 0.00 0.00 56 1011.0
20260505122516 17 229 1.6 6.4 0.00 0.00 0.00 56 1010.9
20260505122015 17 263 0.0 8.0 0.00 0.00 0.00 56 1011.1
20260505121514 17 262 1.6 9.7 0.00 0.00 0.00 56 1011.0
20260505121033 17 250 1.6 9.7 0.00 0.00 0.00 57 1011.0
20260505120531 17 201 1.6 6.4 0.00 0.00 0.00 57 1011.1
20260505120024 17 222 0.0 6.4 0.00 0.00 0.00 58 1011.0
20260505115524 16 236 1.6 4.8 0.00 0.00 0.00 59 1011.0
20260505115043 16 285 1.6 8.0 0.00 0.00 0.00 59 1011.0
20260505114542 16 233 0.0 8.0 0.00 0.00 0.00 60 1011.0
20260505114019 16 238 0.0 3.2 0.00 0.00 0.00 61 1011.2
20260505113519 16 217 0.0 1.6 0.00 0.00 0.00 61 1011.1
20260505113018 16 337 0.0 3.2 0.00 0.00 0.00 62 1011.0
20260505112515 16 263 0.0 6.4 0.00 0.00 0.00 62 1010.8
20260505112014 15 235 0.0 6.4 0.00 0.00 0.00 63 1010.8
20260505111513 15 72 0.0 3.2 0.00 0.00 0.00 63 1010.8
20260505111012 15 235 0.0 4.8 0.00 0.00 0.00 64 1010.8
20260505110511 15 219 1.6 3.2 0.00 0.00 0.00 65 1010.8
20260505102023 13 282 0.0 1.6 0.00 0.00 0.00 68 1010.6
20260505101524 13 285 0.0 1.6 0.00 0.00 0.00 68 1010.6
20260505101046 13 253 0.0 1.6 0.00 0.00 0.00 67 1010.4
20260505100524 14 253 0.0 1.6 0.00 0.00 0.00 67 1010.4
20260505100019 14 253 0.0 1.6 0.00 0.00 0.00 66 1010.3
20260505095519 14 252 0.0 1.6 0.00 0.00 0.00 66 1010.3
20260505095018 14 253 0.0 1.6 0.00 0.00 0.00 66 1010.3
20260505094516 14 85 0.0 1.6 0.00 0.00 0.00 65 1010.3
20260505094015 14 229 0.0 0.0 0.00 0.00 0.00 65 1010.3
20260505093534 14 230 0.0 0.0 0.00 0.00 0.00 64 1010.3
20260505093012 14 229 0.0 1.6 0.00 0.00 0.00 64 1010.2
20260505092532 14 229 0.0 1.6 0.00 0.00 0.00 65 1010.1
20260505092050 14 233 0.0 1.6 0.00 0.00 0.00 64 1010.1
20260505091527 14 246 0.0 4.8 0.00 0.00 0.00 64 1010.2
20260505091041 14 245 0.0 6.4 0.00 0.00 0.00 64 1010.3
20260505090519 14 281 3.2 6.4 0.00 0.00 0.00 65 1010.3
20260505090012 14 221 1.6 6.4 0.00 0.00 0.00 67 1010.3
20260505085512 13 19 0.0 3.2 0.00 0.00 0.00 69 1010.4
20260505085013 13 263 0.0 4.8 0.00 0.00 0.00 69 1010.3
20260505084514 13 284 0.0 4.8 0.00 0.00 0.00 70 1010.3
20260505084013 13 243 0.0 8.0 0.00 0.00 0.00 69 1010.3
20260505083514 13 210 1.6 8.0 0.00 0.00 0.00 68 1010.3
20260505083015 12 262 3.2 8.0 0.00 0.00 0.00 68 1010.3
20260505082511 12 248 0.0 3.2 0.00 0.00 0.00 67 1010.4
20260505082029 11 155 0.0 1.6 0.00 0.00 0.00 65 1010.4
20260505081528 12 158 0.0 1.6 0.00 0.00 0.00 65 1010.2